Regional Weather Roundup
Issued by NWS Albany, NY

Home | Current Version | Previous Version | Text Only | Print | Product List | Glossary On
Versions: 1 2 3 4 5 6 7 8 9 10 11 12 13 14 15 16 17 18 19 20 21 22 23 24 25 26 27 28 29 30 31 32 33 34 35 36 37 38 39 40 41 42 43 44 45 46 47 48 49 50
918
ASUS41 KALY 101510
RWRALY

NEW YORK STATE HOURLY WEATHER ROUNDUP
NATIONAL WEATHER SERVICE ALBANY NY
1000 AM EST SAT DEC 10 2016

NOTE: "FAIR" INDICATES FEW OR NO CLOUDS BELOW 12,000 FEET WITH NO
SIGNIFICANT WEATHER AND/OR NO OBSTRUCTIONS TO VISIBILITY.

NYZ032-033-038>043-046>054-057>066-NYZ062>081-082-084-101600-
EAST


CITY           SKY/WX    TMP DP  RH WIND       PRES   REMARKS
ALBANY         MOSUNNY   24  10  55 NW9       30.39R WCI  14
GLENS FALLS    SUNNY     25   6  44 NW6       30.36R WCI  18
POUGHKEEPSIE   MOSUNNY   27  18  69 W3        30.38R
NEWBURGH       MOSUNNY   27  19  74 W14       30.38R WCI  15
MONTGOMERY     MOSUNNY   28  18  66 NW8       30.37R WCI  20
WHITE PLAINS   MOSUNNY   30  14  51 NW14      30.36S WCI  19
ISLIP          PTSUNNY   32  15  49 NW15G26   30.38S WCI  22
NEW YORK CITY  PTSUNNY   34  19  54 W13       30.40S WCI  25
CENTRAL PARK   MOSUNNY   31  19  61 VRB7      30.42R WCI  24
$$

NYZ005>009-017-018-044>046-055-056-101600-
CENTRAL


CITY           SKY/WX    TMP DP  RH WIND       PRES   REMARKS
FULTON         FLURRIES  22  17  81 SE5       30.36S WCI  16
SYRACUSE       FLURRIES  21  19  92 SE3       30.37R
ROME           CLOUDY    18  14  84 E3        30.39S
ELMIRA         NOT AVBL
BINGHAMTON     NOT AVBL
MONTICELLO     SUNNY     21  16  79 W7        30.32R WCI  13
$$

NYZ026>034-041>043-087-101600-
NORTH


CITY           SKY/WX    TMP DP  RH WIND       PRES   REMARKS
WATERTOWN      MOSUNNY   21  15  78 NE3       30.37R
FORT DRUM      NOT AVBL
OGDENSBURG     FAIR      21  15  78 W3        30.37S
MASSENA        CLOUDY    19  13  77 SW7       30.38R WCI  10
SARANAC LAKE   SUNNY     16   5  62 VRB5      30.22R WCI   9
PLATTSBURGH    MOSUNNY   23   3  42 N10       30.35R WCI  12
$$

NYZ001>004-010>016-019>021-085-101600-
WEST


CITY           SKY/WX    TMP DP  RH WIND       PRES   REMARKS
NIAGARA FALLS  CLOUDY    31  20  63 W10       30.34S WCI  22
BUFFALO        PTSUNNY   27  18  69 NW13      30.34S WCI  16
DUNKIRK        LGT SNOW  27  19  72 W12G20    30.37R WCI  17
JAMESTOWN      CLOUDY    21  18  86 SW12      30.30R VSB 3/4 WCI   9
WELLSVILLE     LGT SNOW  23  17  78 W10       30.28R WCI  12
ROCHESTER      LGT SNOW  25  22  88 SW7       30.36R FOG     WCI  17
PENN YAN       LGT SNOW  24  19  81 S5        30.34R WCI  18
$$

             KEY
       WCI = WIND CHILL INDEX
       VSB = VISIBILITY
       HX  = HEAT INDEX
$$




USA.gov is the U.S. government's official web portal to all federal, state and local government web resources and services.